This is the latest recevied weather packets stored in our database for station/object F4ETJ-1. If no packets are shown the sender has not sent any weather packets the latest 10 day(s).
| Time | Temp. | Humidity | Pressure | Rain* | Wind** | Luminosity | Snow |
|---|---|---|---|---|---|---|---|
| 1777712335 | 17.22° C | 70% | 1015.6 hPa | 0 mm | - | - | - |
| 1777711974 | 17.22° C | 70% | 1015.5 hPa | 0 mm | - | - | - |
| 1777711614 | 16.67° C | 71% | 1015.5 hPa | 0 mm | - | - | - |
| 1777711253 | 17.22° C | 69% | 1015.5 hPa | 0 mm | - | - | - |
| 1777710893 | 17.22° C | 67% | 1015.5 hPa | 0 mm | - | - | - |
| 1777710533 | 17.22° C | 66% | 1015.5 hPa | 0 mm | - | - | - |
| 1777710173 | 17.22° C | 66% | 1015.5 hPa | 0 mm | - | - | - |
| 1777709812 | 17.22° C | 66% | 1015.6 hPa | 0 mm | - | - | - |
| 1777709452 | 17.22° C | 67% | 1015.6 hPa | 0 mm | - | - | - |
| 1777709092 | 17.22° C | 67% | 1015.6 hPa | 0 mm | - | - | - |
| 1777708731 | 16.67° C | 67% | 1015.7 hPa | 0 mm | - | - | - |
| 1777708371 | 16.67° C | 67% | 1015.7 hPa | 0 mm | - | - | - |
| 1777708010 | 16.11° C | 67% | 1015.5 hPa | 0 mm | - | - | - |
| 1777707650 | 16.11° C | 67% | 1015.3 hPa | 0 mm | - | - | - |
| 1777707290 | 16.11° C | 67% | 1015.3 hPa | 0 mm | - | - | - |
| 1777706930 | 15.56° C | 68% | 1015.3 hPa | 0 mm | - | - | - |
| 1777706569 | 15.56° C | 68% | 1015.3 hPa | 0 mm | - | - | - |
| 1777706209 | 15.56° C | 67% | 1015.5 hPa | 0 mm | - | - | - |
| 1777705848 | 15.56° C | 66% | 1015.5 hPa | 0 mm | - | - | - |
| 1777705488 | 15.56° C | 68% | 1015.4 hPa | 0 mm | - | - | - |
| 1777705128 | 15° C | 67% | 1015.4 hPa | 0 mm | - | - | - |
| 1777704769 | 15° C | 67% | 1015.2 hPa | 0 mm | - | - | - |
| 1777704407 | 15° C | 68% | 1015.2 hPa | 0 mm | - | - | - |
| 1777704047 | 14.44° C | 67% | 1015.3 hPa | 0 mm | - | - | - |
| 1777703686 | 14.44° C | 66% | 1015.2 hPa | 0 mm | - | - | - |
* Rain latest hour (hover to see other rain measurements)
** Current wind speed in m/s (hover to see current wind gust speed)